When you browse on this site, cookies collect data to enhance your experience and personalize the content and advertising you see.
Visit our Privacy Policy to learn more. By continuing to use the site, you agree to this use of cookies and data.
  • In Portugal
  • List of Countries
  • For 7 days
  • Water Temperature
  • Weather Map
  • Weather Widgets
  • user-avatar
    Login

    Hourly Weather Gabú

    Today, 28 February, Friday

    Time Temperature Precipitation Wind Pressure Humidity
    00:00 +24°C° 0 mm 2 mps 753 mmHg 71%
    01:00 +23°C° 0 mm 2 mps 752 mmHg 76%
    02:00 +21°C° 0 mm 2 mps 752 mmHg 82%
    03:00 +22°C° 0 mm 1 mps 752 mmHg 85%
    04:00 +21°C° 0 mm 1 mps 752 mmHg 88%
    05:00 +21°C° 0 mm 1 mps 752 mmHg 92%
    06:00 +23°C° 0 mm 1 mps 753 mmHg 81%
    07:00 +25°C° 0 mm 1 mps 753 mmHg 70%
    08:00 +25°C° 0 mm 0 mps 754 mmHg 60%
    09:00 +32°C° 0 mm 1 mps 754 mmHg 45%
    10:00 +36°C° 0 mm 1 mps 753 mmHg 30%
    11:00 +42°C° 0 mm 1 mps 753 mmHg 16%
    12:00 +44°C° 0 mm 1 mps 752 mmHg 13%
    13:00 +43°C° 0 mm 0 mps 751 mmHg 10%
    14:00 +46°C° 0 mm 0 mps 750 mmHg 7%
    15:00 +44°C° 0 mm 0 mps 750 mmHg 8%
    16:00 +44°C° 0 mm 1 mps 749 mmHg 8%
    17:00 +42°C° 0 mm 1 mps 749 mmHg 9%
    18:00 +39°C° 0 mm 2 mps 750 mmHg 13%
    19:00 +36°C° 0 mm 2 mps 750 mmHg 18%
    20:00 +31°C° 0 mm 3 mps 751 mmHg 23%
    21:00 +29°C° 0 mm 2 mps 751 mmHg 33%
    22:00 +27°C° 0 mm 2 mps 752 mmHg 43%
    23:00 +25°C° 0 mm 2 mps 752 mmHg 53%

    Tomorrow, 29 February, Saturday

    Time Temperature Precipitation Wind Pressure Humidity
    00:00 +24°C° 0 mm 2 mps 752 mmHg 56%
    01:00 +23°C° 0 mm 1 mps 752 mmHg 58%
    02:00 +22°C° 0 mm 1 mps 751 mmHg 61%
    03:00 +21°C° 0 mm 1 mps 751 mmHg 65%
    04:00 +21°C° 0 mm 1 mps 751 mmHg 69%
    05:00 +20°C° 0 mm 1 mps 751 mmHg 73%
    06:00 +22°C° 0 mm 1 mps 752 mmHg 64%
    07:00 +23°C° 0 mm 0 mps 752 mmHg 55%
    08:00 +25°C° 0 mm 0 mps 753 mmHg 46%
    09:00 +31°C° 0 mm 1 mps 752 mmHg 35%
    10:00 +36°C° 0 mm 2 mps 752 mmHg 24%
    11:00 +40°C° 0 mm 2 mps 752 mmHg 13%
    12:00 +41°C° 0 mm 2 mps 751 mmHg 12%
    13:00 +43°C° 0 mm 2 mps 750 mmHg 10%
    14:00 +46°C° 0 mm 2 mps 749 mmHg 8%
    15:00 +44°C° 0 mm 1 mps 749 mmHg 9%
    16:00 +44°C° 0 mm 1 mps 748 mmHg 9%
    17:00 +40°C° 0 mm 0 mps 748 mmHg 9%
    18:00 +40°C° 0 mm 1 mps 749 mmHg 14%
    19:00 +35°C° 0 mm 1 mps 750 mmHg 19%
    20:00 +32°C° 0 mm 2 mps 750 mmHg 23%
    21:00 +29°C° 0 mm 2 mps 751 mmHg 37%
    22:00 +27°C° 0 mm 2 mps 751 mmHg 51%
    23:00 +24°C° 0 mm 2 mps 751 mmHg 65%

    Day after tomorrow, 1 March, Sunday

    Time Temperature Precipitation Wind Pressure Humidity
    00:00 +24°C° 0 mm 2 mps 751 mmHg 70%
    01:00 +23°C° 0 mm 2 mps 751 mmHg 75%
    02:00 +21°C° 0 mm 2 mps 751 mmHg 79%
    03:00 +21°C° 0 mm 1 mps 751 mmHg 83%
    04:00 +21°C° 0 mm 1 mps 751 mmHg 86%
    05:00 +20°C° 0 mm 1 mps 751 mmHg 89%
    06:00 +22°C° 0 mm 1 mps 751 mmHg 78%
    07:00 +25°C° 0 mm 1 mps 752 mmHg 68%
    08:00 +27°C° 0 mm 1 mps 752 mmHg 57%
    09:00 +31°C° 0 mm 1 mps 752 mmHg 43%
    10:00 +36°C° 0 mm 2 mps 752 mmHg 29%
    11:00 +40°C° 0 mm 2 mps 751 mmHg 15%
    12:00 +42°C° 0 mm 2 mps 750 mmHg 13%
    13:00 +43°C° 0 mm 2 mps 749 mmHg 10%
    14:00 +46°C° 0 mm 2 mps 748 mmHg 8%
    15:00 +45°C° 0 mm 2 mps 748 mmHg 8%
    16:00 +44°C° 0 mm 1 mps 748 mmHg 8%
    17:00 +43°C° 0 mm 1 mps 748 mmHg 9%
    18:00 +40°C° 0 mm 1 mps 749 mmHg 15%
    19:00 +36°C° 0 mm 2 mps 749 mmHg 21%
    20:00 +31°C° 0 mm 3 mps 750 mmHg 27%
    21:00 +29°C° 0 mm 2 mps 751 mmHg 41%
    22:00 +27°C° 0 mm 2 mps 751 mmHg 55%
    23:00 +24°C° 0 mm 2 mps 752 mmHg 69%

    2 March, Monday

    Time Temperature Precipitation Wind Pressure Humidity
    00:00 +23°C° 0 mm 2 mps 751 mmHg 75%
    01:00 +23°C° 0 mm 1 mps 751 mmHg 81%
    02:00 +22°C° 0 mm 1 mps 751 mmHg 88%
    03:00 +22°C° 0 mm 1 mps 751 mmHg 90%
    04:00 +21°C° 0 mm 1 mps 751 mmHg 92%
    05:00 +21°C° 0 mm 1 mps 751 mmHg 94%
    06:00 +23°C° 0 mm 1 mps 752 mmHg 85%
    07:00 +25°C° 0 mm 1 mps 752 mmHg 77%
    08:00 +27°C° 0 mm 1 mps 753 mmHg 68%
    09:00 +31°C° 0 mm 1 mps 753 mmHg 51%
    10:00 +36°C° 0 mm 1 mps 753 mmHg 34%
    11:00 +41°C° 0 mm 1 mps 753 mmHg 18%
    12:00 +42°C° 0 mm 2 mps 752 mmHg 15%
    13:00 +45°C° 0 mm 2 mps 751 mmHg 12%
    14:00 +46°C° 0 mm 2 mps 750 mmHg 9%
    15:00 +45°C° 0 mm 2 mps 749 mmHg 9%
    16:00 +45°C° 0 mm 2 mps 749 mmHg 9%
    17:00 +43°C° 0 mm 1 mps 749 mmHg 9%
    18:00 +39°C° 0 mm 2 mps 750 mmHg 16%
    19:00 +36°C° 0 mm 2 mps 750 mmHg 23%
    20:00 +31°C° 0 mm 2 mps 751 mmHg 30%
    21:00 +29°C° 0 mm 2 mps 752 mmHg 44%
    22:00 +27°C° 0 mm 2 mps 752 mmHg 59%
    23:00 +24°C° 0 mm 2 mps 753 mmHg 73%

    3 March, Tuesday

    Time Temperature Precipitation Wind Pressure Humidity
    00:00 +24°C° 0 mm 2 mps 752 mmHg 80%
    01:00 +23°C° 0 mm 1 mps 752 mmHg 86%
    02:00 +22°C° 0 mm 1 mps 752 mmHg 92%
    03:00 +22°C° 0 mm 1 mps 752 mmHg 93%
    04:00 +21°C° 0 mm 1 mps 752 mmHg 94%
    05:00 +21°C° 0 mm 1 mps 752 mmHg 95%
    06:00 +23°C° 0 mm 1 mps 753 mmHg 86%
    07:00 +25°C° 0 mm 1 mps 753 mmHg 77%
    08:00 +27°C° 0 mm 1 mps 753 mmHg 68%
    09:00 +31°C° 0 mm 0 mps 753 mmHg 50%
    10:00 +36°C° 0 mm 0 mps 753 mmHg 33%
    11:00 +41°C° 0 mm 0 mps 753 mmHg 16%
    12:00 +45°C° 0 mm 1 mps 752 mmHg 14%
    13:00 +45°C° 0 mm 1 mps 751 mmHg 11%
    14:00 +46°C° 0 mm 2 mps 750 mmHg 9%
    15:00 +45°C° 0 mm 1 mps 750 mmHg 9%
    16:00 +44°C° 0 mm 1 mps 750 mmHg 9%
    17:00 +43°C° 0 mm 1 mps 749 mmHg 9%
    18:00 +39°C° 0 mm 2 mps 750 mmHg 16%
    19:00 +36°C° 0 mm 2 mps 751 mmHg 24%
    20:00 +31°C° 0 mm 3 mps 751 mmHg 32%
    21:00 +29°C° 0 mm 2 mps 752 mmHg 46%
    22:00 +26°C° 0 mm 2 mps 752 mmHg 60%
    23:00 +24°C° 0 mm 2 mps 753 mmHg 74%

    4 March, Wednesday

    Time Temperature Precipitation Wind Pressure Humidity
    00:00 +23°C° 0 mm 2 mps 752 mmHg 80%
    01:00 +23°C° 0 mm 2 mps 752 mmHg 86%
    02:00 +22°C° 0 mm 1 mps 752 mmHg 93%
    03:00 +22°C° 0 mm 1 mps 752 mmHg 94%
    04:00 +21°C° 0 mm 1 mps 752 mmHg 95%
    05:00 +21°C° 0 mm 1 mps 752 mmHg 96%
    06:00 +23°C° 0 mm 1 mps 753 mmHg 88%
    07:00 +25°C° 0 mm 1 mps 753 mmHg 80%
    08:00 +26°C° 0 mm 1 mps 754 mmHg 72%
    09:00 +32°C° 0 mm 1 mps 754 mmHg 54%
    10:00 +37°C° 0 mm 1 mps 753 mmHg 35%
    11:00 +41°C° 0 mm 0 mps 753 mmHg 16%
    12:00 +44°C° 0 mm 1 mps 752 mmHg 14%
    13:00 +45°C° 0 mm 1 mps 751 mmHg 11%
    14:00 +46°C° 0 mm 2 mps 750 mmHg 8%
    15:00 +46°C° 0 mm 2 mps 750 mmHg 8%
    16:00 +45°C° 0 mm 2 mps 750 mmHg 8%
    17:00 +43°C° 0 mm 2 mps 749 mmHg 8%
    18:00 +40°C° 0 mm 1 mps 750 mmHg 10%
    19:00 +36°C° 0 mm 1 mps 750 mmHg 12%
    20:00 +32°C° 0 mm 1 mps 751 mmHg 14%
    21:00 +30°C° 0 mm 2 mps 751 mmHg 30%
    22:00 +27°C° 0 mm 2 mps 752 mmHg 46%
    23:00 +25°C° 0 mm 2 mps 752 mmHg 63%
    Show more